Location: *
(52.2090°N, 4.1550°W)
Time: 07:59:20
(UTC+00:00)

Cosmos 1825 - Pass Details

Date: 19 July 2019
Orbit: 505 x 508 km, 82.5° (Epoch: 25 August)

Event Time Altitude Azimuth Distance (km) Brightness Sun altitude
Exits shadow 21:17:15 - 163° (SSE) 2,038 4.7 -6.6°
Reaches altitude 10° 21:18:04 10° 158° (SSE) 1,719 4.3 -6.7°
Maximum altitude 21:21:31 35° 93° (E) 840 2.9 -7.0°
Drops below altitude 10° 21:24:59 10° 26° (NNE) 1,732 5.2 -7.4°
Sets 21:27:14 0° 18° (NNE) 2,622 6.3 -7.6°
